Stations météo

réclame
Mon MeteoGroup
Odiham, Grande-Bretagne (3761): Température de l'air & dewpoint: 18.11.2020 14:00:00 - 24.11.2020 14:00:00 (GMT)Odiham, Grande-Bretagne (3761): Température de l'air -20cm & Température de l'air -100cm: 18.11.2020 14:00:00 - 24.11.2020 14:00:00 (GMT)Odiham, Grande-Bretagne (3761): Vitesse du vent & gusts: 18.11.2020 14:00:00 - 24.11.2020 14:00:00 (GMT)Odiham, Grande-Bretagne (3761): Direction du vent: 18.11.2020 14:00:00 - 24.11.2020 14:00:00 (GMT)Odiham, Grande-Bretagne (3761): reduced air pressure: 18.11.2020 14:00:00 - 24.11.2020 14:00:00 (GMT)Odiham, Grande-Bretagne (3761): visibility: 18.11.2020 14:00:00 - 24.11.2020 14:00:00 (GMT)Odiham, Grande-Bretagne (3761): Ensoleillement: 18.11.2020 14:00:00 - 24.11.2020 14:00:00 (GMT)Odiham, Grande-Bretagne (3761): Quantités de précipitations: 18.11.2020 14:00:00 - 24.11.2020 14:00:00 (GMT)
Date & Time tt [°C] td [°C] tt -20cm [°C] tt -100cm [°C] ff [km/h] ff [knt] fx [km/h] fx [knt] dd ppp [hPa] vv [km] sd [min] rr [mm]
24.11.2020 14:00:00 10,9 7,3 - - 21 11 - - SSE 1015,0 10 54 0,0
24.11.2020 13:00:00 11,1 7,1 - - 16 9 - - SSE 1015,9 10 42 0,0
24.11.2020 12:00:00 10,1 6,9 - - 22 12 - - S 1016,9 25 42 0,0
24.11.2020 11:00:00 9,9 7,0 - - 24 13 - - S 1017,9 10 0 0,0
24.11.2020 10:00:00 10,0 7,4 - - 24 13 - - S 1018,6 10 18 0,0
24.11.2020 09:00:00 9,4 7,5 10,0 11,4 21 11 - - S 1018,8 10 0 0,0
24.11.2020 08:00:00 9,0 7,4 - - 16 9 - - S 1018,9 10 0 0,0
24.11.2020 07:00:00 9,5 8,2 - - 18 10 - - S 1019,4 20 0 0,0
24.11.2020 06:00:00 9,5 8,3 - - 21 11 - - S 1019,8 10 0 0,0
24.11.2020 05:00:00 9,6 8,2 - - 18 10 - - S 1020,3 23 0 0,0
24.11.2020 04:00:00 10,4 7,8 - - 18 10 - - SSW 1020,9 35 0 0,0
24.11.2020 03:00:00 10,6 8,5 - - 16 9 - - SSW 1021,5 29 0 0,0
24.11.2020 02:00:00 10,5 8,5 - - 21 11 - - S 1022,1 30 0 0,0
24.11.2020 01:00:00 8,9 7,8 - - 13 7 - - SSW 1023,0 17 0 0,0
24.11.2020 00:00:00 9,8 8,4 - - 18 10 - - S 1023,5 22 - 0,0
23.11.2020 23:00:00 9,9 8,5 - - 15 8 - - S 1023,8 30 0 0,0
23.11.2020 22:00:00 8,8 7,9 - - 18 10 - - S 1024,3 23 0 0,0
23.11.2020 21:00:00 7,4 6,5 - - 9 5 - - S 1024,8 10 0 0,0
23.11.2020 20:00:00 8,2 7,0 - - 18 10 - - S 1024,8 10 0 0,0
23.11.2020 19:00:00 8,1 6,8 - - 11 6 - - S 1025,4 10 0 0,0
23.11.2020 18:00:00 8,7 7,3 - - 13 7 - - S 1025,7 10 0 0,0
23.11.2020 17:00:00 8,9 7,2 - - 16 9 - - S 1025,7 10 0 0,0
23.11.2020 16:00:00 9,6 7,1 - - 15 8 - - S 1026,1 10 0 0,0
23.11.2020 15:00:00 9,8 6,8 - - 15 8 - - S 1026,1 10 0 0,0
23.11.2020 14:00:00 10,0 5,8 - - 16 9 - - S 1026,6 10 18 0,0
23.11.2020 13:00:00 9,8 6,3 - - 15 8 - - S 1027,3 10 12 0,0
23.11.2020 12:00:00 9,7 7,0 - - 15 8 - - S 1027,6 10 6 0,0
23.11.2020 11:00:00 8,4 5,6 - - 11 6 - - S 1028,5 10 0 0,0
23.11.2020 10:00:00 7,9 6,3 - - 8 4 - - SSW 1028,5 10 0 0,0
23.11.2020 09:00:00 5,7 4,7 10,2 11,4 8 4 - - SSW 1028,7 10 0 0,0
23.11.2020 08:00:00 3,9 3,3 - - 2 1 - - WSW 1028,5 10 0 0,0
23.11.2020 07:00:00 2,9 2,2 - - 4 2 - - SSW 1028,1 10 0 0,0
23.11.2020 06:00:00 1,5 0,7 - - 5 3 - - S 1028,1 10 0 0,0
23.11.2020 05:00:00 2,0 1,4 - - 0 0 - - N 1028,3 10 0 0,0
23.11.2020 04:00:00 2,6 2,0 - - 8 4 - - S 1028,3 10 0 0,0
23.11.2020 03:00:00 4,2 3,3 - - 5 3 - - SSW 1028,2 11 0 0,0
23.11.2020 02:00:00 4,5 3,3 - - 5 3 - - SW 1028,2 14 0 0,0
23.11.2020 01:00:00 5,5 4,1 - - 8 4 - - SW 1028,3 10 0 0,0
23.11.2020 00:00:00 6,5 4,5 - - 5 3 - - W 1028,3 10 - 0,0
22.11.2020 23:00:00 7,3 5,0 - - 5 3 - - WSW 1028,0 19 0 0,0
22.11.2020 22:00:00 7,1 5,0 - - 8 4 - - WSW 1028,1 19 0 0,0
22.11.2020 21:00:00 6,6 4,7 - - 8 4 - - WSW 1028,0 18 0 0,0
22.11.2020 20:00:00 6,6 4,4 - - 5 3 - - WSW 1027,7 21 0 0,0
22.11.2020 19:00:00 7,1 4,0 - - 4 2 - - WSW 1027,6 10 0 0,0
22.11.2020 18:00:00 8,3 4,6 - - 5 3 - - W 1027,3 28 0 0,0
22.11.2020 17:00:00 9,0 4,8 - - 8 4 - - W 1027,0 10 0 0,0
22.11.2020 16:00:00 10,1 4,5 - - 11 6 - - W 1026,6 35 0 0,0
22.11.2020 15:00:00 10,8 4,3 - - 13 7 - - W 1026,3 10 48 0,0
22.11.2020 14:00:00 11,4 4,8 - - 11 6 - - W 1026,3 30 24 0,0
22.11.2020 13:00:00 10,5 4,6 - - 8 4 - - W 1027,1 10 12 0,0
22.11.2020 12:00:00 10,1 5,6 - - 8 4 - - W 1027,5 10 0 0,0
22.11.2020 11:00:00 9,5 6,9 - - 8 4 - - WNW 1027,8 28 0 0,0
22.11.2020 10:00:00 9,3 7,9 - - 8 4 - - W 1027,4 10 0 0,0
22.11.2020 09:00:00 9,2 8,3 10,4 11,5 8 4 - - WNW 1027,3 10 0 0,0
22.11.2020 08:00:00 8,9 8,0 - - 8 4 - - WSW 1026,9 10 0 0,0
22.11.2020 07:00:00 9,0 7,8 - - 9 5 - - SW 1026,3 10 0 0,0
22.11.2020 06:00:00 9,8 8,3 - - 9 5 - - WSW 1026,0 10 0 0,0
22.11.2020 05:00:00 10,4 9,0 - - 9 5 - - W 1026,0 10 0 0,0
22.11.2020 04:00:00 10,4 9,3 - - 16 9 - - SW 1025,8 16 0 0,0
22.11.2020 03:00:00 10,5 9,1 - - 18 10 - - SW 1025,6 20 0 0,0
22.11.2020 02:00:00 10,7 8,8 - - 21 11 - - SW 1025,3 10 0 0,0
22.11.2020 01:00:00 10,6 8,8 - - 22 12 - - SW 1025,3 10 0 0,0
22.11.2020 00:00:00 10,4 8,6 - - 26 14 - - SW 1025,3 30 - 0,0
21.11.2020 23:00:00 10,3 8,6 - - 24 13 - - SW 1025,2 10 0 0,0
21.11.2020 22:00:00 10,3 8,5 - - 24 13 - - SW 1025,9 10 0 0,0
21.11.2020 21:00:00 10,3 8,4 - - 24 13 - - SW 1026,0 10 0 0,0
21.11.2020 20:00:00 10,0 8,3 - - 21 11 - - SW 1026,4 27 0 0,0
21.11.2020 19:00:00 10,4 8,4 - - 22 12 - - SW 1026,2 26 0 0,0
21.11.2020 18:00:00 10,4 8,3 - - 22 12 - - SSW 1026,1 27 0 0,0
21.11.2020 17:00:00 10,9 7,9 - - 22 12 - - SW 1026,0 35 0 0,0
21.11.2020 16:00:00 10,9 7,8 - - 21 11 - - SSW 1026,0 10 0 0,0
21.11.2020 15:00:00 11,2 7,4 - - 22 12 - - SW 1026,1 30 0 0,0
21.11.2020 14:00:00 11,1 7,2 - - 26 14 - - SW 1026,5 27 0 0,0
21.11.2020 13:00:00 11,0 7,3 - - 24 13 - - SW 1026,8 24 0 0,0
21.11.2020 12:00:00 11,1 6,9 - - 26 14 - - WSW 1027,5 28 0 0,0
21.11.2020 11:00:00 11,2 6,5 - - 31 17 46 25 SW 1027,5 10 0 0,0
21.11.2020 10:00:00 10,7 7,2 - - 26 14 - - SW 1027,7 10 0 0,0
21.11.2020 09:00:00 10,3 7,5 10,2 11,7 22 12 - - SW 1027,6 27 0 0,0
21.11.2020 08:00:00 9,8 7,7 - - 21 11 - - SW 1027,7 10 0 0,0
21.11.2020 07:00:00 9,5 8,0 - - 16 9 - - SW 1027,8 24 0 0,0
21.11.2020 06:00:00 9,4 8,1 - - 22 12 - - SW 1028,0 7 0 0,0
21.11.2020 05:00:00 9,4 7,7 - - 22 12 - - SW 1028,1 10 0 0,0
21.11.2020 04:00:00 9,6 7,6 - - 29 16 - - SW 1027,8 10 0 0,0
21.11.2020 03:00:00 9,5 7,2 - - 22 12 - - SW 1028,1 10 0 0,0
21.11.2020 02:00:00 9,6 7,4 - - 26 14 - - SW 1028,2 10 0 0,0
21.11.2020 01:00:00 9,9 7,7 - - 26 14 - - SSW 1028,4 25 0 0,0
21.11.2020 00:00:00 9,8 8,3 - - 21 11 - - SW 1029,2 18 - 0,0
20.11.2020 23:00:00 10,0 8,5 - - 24 13 - - SW 1029,5 10 0 0,0
20.11.2020 22:00:00 10,1 9,0 - - 21 11 - - SSW 1029,9 15 0 0,0
20.11.2020 21:00:00 10,0 9,2 - - 24 13 - - SSW 1030,2 19 0 0,2
20.11.2020 20:00:00 9,6 9,0 - - 22 12 - - SSW 1030,5 2,4 0 0,0
20.11.2020 19:00:00 9,6 8,6 - - 21 11 - - SSW 1030,7 16 0 0,0
20.11.2020 18:00:00 9,5 8,7 - - 18 10 - - SSW 1031,0 4,0 0 0,0
20.11.2020 17:00:00 9,5 8,5 - - 21 11 - - SSW 1031,2 10 0 0,0
20.11.2020 16:00:00 9,4 8,4 - - 21 11 - - SSW 1031,4 15 0 0,2
20.11.2020 15:00:00 9,2 8,3 - - 16 9 - - S 1031,9 6 0 0,4
20.11.2020 14:00:00 9,0 7,9 - - 16 9 - - S 1032,7 10 0 0,4
20.11.2020 13:00:00 9,0 7,3 - - 21 11 - - S 1033,2 10 0 0,0
20.11.2020 12:00:00 8,3 6,7 - - 15 8 - - S 1033,9 10 0 0,0
20.11.2020 11:00:00 7,4 5,7 - - 15 8 - - SSW 1034,4 10 0 0,4
20.11.2020 10:00:00 7,2 4,2 - - 13 7 - - S 1034,7 10 0 0,0
20.11.2020 09:00:00 6,3 3,0 10,4 11,7 13 7 - - SSW 1034,7 10 0 0,0
20.11.2020 08:00:00 4,4 2,0 - - 15 8 - - SSW 1034,9 10 0 0,0
20.11.2020 07:00:00 3,4 1,5 - - 11 6 - - SSW 1035,0 26 0 0,0
20.11.2020 06:00:00 3,4 1,8 - - 9 5 - - SSW 1035,0 10 0 0,0
20.11.2020 05:00:00 2,4 0,9 - - 8 4 - - SSW 1035,4 21 0 0,0
20.11.2020 04:00:00 2,8 1,5 - - 11 6 - - SSW 1035,4 10 0 0,0
20.11.2020 03:00:00 2,7 1,1 - - 11 6 - - SW 1035,7 10 0 0,0
20.11.2020 02:00:00 2,1 0,7 - - 13 7 - - SW 1036,3 10 0 0,0
20.11.2020 01:00:00 2,6 1,2 - - 11 6 - - SW 1036,4 10 0 0,0
20.11.2020 00:00:00 3,3 1,5 - - 9 5 - - SW 1036,3 10 - 0,0
19.11.2020 23:00:00 3,7 1,5 - - 8 4 - - W 1036,3 25 0 0,0
19.11.2020 22:00:00 4,6 1,7 - - 9 5 - - W 1036,7 29 0 0,0
19.11.2020 21:00:00 4,4 0,9 - - 9 5 - - W 1035,5 30 0 0,0
19.11.2020 20:00:00 5,4 1,4 - - 9 5 - - W 1034,8 10 0 0,0
19.11.2020 19:00:00 5,8 1,8 - - 9 5 - - W 1034,0 10 0 0,0
19.11.2020 18:00:00 6,5 2,0 - - 11 6 - - WNW 1033,9 10 0 0,0
19.11.2020 17:00:00 7,4 1,9 - - 13 7 - - WNW 1033,6 10 0 0,0
19.11.2020 16:00:00 7,6 2,8 - - 15 8 - - WNW 1032,6 10 18 0,0
19.11.2020 15:00:00 8,5 3,4 - - 13 7 - - NNW 1029,9 10 54 0,0
19.11.2020 14:00:00 8,5 4,0 - - 22 12 - - NNW 1030,4 40 18 0,0
19.11.2020 13:00:00 8,1 5,0 - - 26 14 57 31 NNW 1029,7 10 0 0,0
19.11.2020 12:00:00 9,9 3,5 - - 34 18 52 28 WNW 1027,5 10 0 0,0
19.11.2020 11:00:00 9,5 4,5 - - 29 16 48 26 W 1026,2 10 0 0,0
19.11.2020 10:00:00 8,9 5,0 - - 24 13 - - W 1025,1 10 12 0,0
19.11.2020 09:00:00 8,8 4,5 11,0 11,7 28 15 - - W 1023,7 10 0 0,0
19.11.2020 08:00:00 8,5 3,9 - - 26 14 48 26 W 1022,5 10 0 0,0
19.11.2020 07:00:00 8,2 3,4 - - 29 16 - - WSW 1021,1 30 0 0,0
19.11.2020 06:00:00 8,3 3,4 - - 29 16 52 28 W 1020,3 27 0 0,0
19.11.2020 05:00:00 8,5 3,9 - - 35 19 54 29 W 1019,9 10 0 0,0
19.11.2020 04:00:00 8,9 4,8 - - 29 16 50 27 WSW 1018,8 10 0 0,0
19.11.2020 03:00:00 8,2 5,1 - - 34 18 52 28 WSW 1018,6 19 0 0,0
19.11.2020 02:00:00 8,2 4,0 - - 28 15 - - SW 1018,2 10 0 0,0
19.11.2020 01:00:00 7,5 3,6 - - 34 18 48 26 SW 1018,1 10 0 0,0
19.11.2020 00:00:00 7,1 3,3 - - 29 16 - - SW 1018,7 20 - 0,0
18.11.2020 23:00:00 7,4 3,4 - - 29 16 46 25 SW 1018,4 21 0 0,0
18.11.2020 22:00:00 7,7 3,6 - - 31 17 - - SW 1017,9 20 0 0,0
18.11.2020 21:00:00 8,0 3,7 - - 26 14 - - SW 1017,6 10 0 0,0
18.11.2020 20:00:00 8,4 4,2 - - 28 15 - - WSW 1017,4 10 0 0,0
18.11.2020 19:00:00 9,2 4,1 - - 26 14 - - W 1016,6 10 0 0,0
18.11.2020 18:00:00 10,3 5,8 - - 31 17 50 27 W 1015,4 10 0 0,0
18.11.2020 17:00:00 10,5 8,5 - - 28 15 57 31 WSW 1014,4 10 0 1,0
18.11.2020 16:00:00 13,9 12,9 - - 31 17 54 29 SSW 1012,2 6 0 0,0
18.11.2020 15:00:00 13,3 12,6 - - 35 19 54 29 SSW 1012,1 7 0 0,0
18.11.2020 14:00:00 12,6 11,6 - - 29 16 - - S 1012,7 7 0 0,0

tt = Température de l'air
td = dewpoint
tt -20cm = Température de l'air -20cm
tt -100cm = Température de l'air -100cm
ff = Vitesse du vent
fx = gusts
dd = Direction du vent
ppp = reduced air pressure
vv = visibility
sd = Ensoleillement
rr = Quantités de précipitations

stations d'obs. à proximité